Weather History for Billings, MT

Change the Weather History Date:

Tuesday, March 12, 2013

  Actual Average Record
Temperature  
Mean Temperature 35 °F 37 °F  
Max Temperature 48 °F 48 °F 75 °F (2007)
Min Temperature 22 °F 26 °F -13 °F (1950)
Degree Days  
Heating Degree Days 30 28  
Month to date heating degree days 353 358  
Since 1 July heating degree days 4914 5323  
Cooling Degree Days 0 0  
Month to date cooling degree days 0 0  
Year to date cooling degree days 0 0  
Moisture  
Dew Point 20 °F    
Average Humidity 62    
Maximum Humidity 92    
Minimum Humidity 31    
Precipitation  
Precipitation T in 0.03 in 0.76 in (1995)
Month to date precipitation 0.17 0.32  
Year to date precipitation 1.05 1.28  
Snow  
Snow T in 0.30 in 5.30 in (1957)
Month to date snowfall 1.7 3.8  
Since 1 July snowfall 33.8 38.3  
Snow Depth 0.00 in    
Sea Level Pressure  
Sea Level Pressure 30.25 in    
Wind  
Wind Speed 9 mph (SW)    
Max Wind Speed 20 mph    
Max Gust Speed 24 mph    
Visibility 10 miles    
Events Snow    
T = Trace of Precipitation, MM = Missing Value Source: NWS Daily Summary

Daily Weather History Graph

Daily Weather History Graph

Search for Another Location

Airport:

Trip Planner

Search our weather history database for the weather conditions in past years. The results will help you decide how hot, cold, wet, or windy it might be!

Date:

Astronomy

Mar. 12, 2013 Rise Set
Actual Time 7:31 AM MDT 7:16 PM MDT
Civil Twilight 7:02 AM MDT 7:46 PM MDT
Nautical Twilight 6:27 AM MDT 8:20 PM MDT
Astronomical Twilight 5:52 AM MDT 8:55 PM MDT
Moon 7:35 AM MDT (3/12) 8:41 PM MDT (3/12)
Length of Visible Light 12h 43m
Length of Day
11h 44m
New Moon, 1% of the Moon is Illuminated
Mar 12
New Moon
Mar 19
First Quarter
Mar 27
Full
Apr 2
Last Quarter
Apr 10
New

Hourly Weather History & Observations

Time (MDT) Temp. Windchill Dew Point Humidity Pressure Visibility Wind Dir Wind Speed Gust Speed Precip Events Conditions
12:53 AM 28.0 °F 18.1 °F 21.9 °F 78% 30.35 in 9.0 mi SW 11.5 mph - 0.00 in Snow Light Snow
1:21 AM 27.0 °F 16.1 °F 23.0 °F 85% 30.28 in 9.0 mi SW 12.7 mph - 0.00 in Snow Light Snow
1:42 AM 27.0 °F 18.0 °F 24.1 °F 89% 30.28 in 9.0 mi SW 9.2 mph - 0.00 in Snow Light Snow
1:53 AM 27.0 °F 16.7 °F 24.1 °F 89% 30.37 in 9.0 mi SW 11.5 mph - 0.00 in Snow Light Snow
2:53 AM 26.1 °F 15.6 °F 23.0 °F 88% 30.38 in 10.0 mi WSW 11.5 mph - 0.00 in   Mostly Cloudy
3:53 AM 25.0 °F 15.5 °F 21.9 °F 88% 30.37 in 10.0 mi SW 9.2 mph - N/A   Mostly Cloudy
4:53 AM 24.1 °F 14.4 °F 21.9 °F 91% 30.36 in 10.0 mi SSW 9.2 mph - N/A   Mostly Cloudy
5:53 AM 24.1 °F 13.1 °F 21.0 °F 88% 30.36 in 10.0 mi WSW 11.5 mph - N/A   Partly Cloudy
6:53 AM 21.9 °F 9.8 °F 19.9 °F 92% 30.37 in 10.0 mi WSW 12.7 mph - N/A   Mostly Cloudy
7:53 AM 21.9 °F 10.4 °F 18.0 °F 85% 30.36 in 10.0 mi WSW 11.5 mph - N/A   Partly Cloudy
8:53 AM 21.9 °F 11.0 °F 18.0 °F 85% 30.35 in 10.0 mi SW 10.4 mph - N/A   Scattered Clouds
9:53 AM 25.0 °F 17.1 °F 19.0 °F 78% 30.35 in 10.0 mi South 6.9 mph - N/A   Partly Cloudy
10:53 AM 28.9 °F 25.2 °F 17.1 °F 61% 30.33 in 10.0 mi Variable 3.5 mph - N/A   Partly Cloudy
11:53 AM 32.0 °F 27.5 °F 17.1 °F 54% 30.31 in 10.0 mi South 4.6 mph - N/A   Mostly Cloudy
12:53 PM 35.1 °F 30.1 °F 17.1 °F 48% 30.28 in 10.0 mi South 5.8 mph - N/A   Overcast
1:53 PM 37.9 °F 30.9 °F 19.9 °F 48% 30.24 in 10.0 mi South 10.4 mph - N/A   Mostly Cloudy
2:53 PM 43.0 °F 37.7 °F 19.0 °F 38% 30.18 in 10.0 mi South 9.2 mph - N/A   Overcast
3:53 PM 46.0 °F 42.5 °F 17.1 °F 31% 30.15 in 10.0 mi SW 6.9 mph - N/A   Mostly Cloudy
4:53 PM 46.9 °F - 18.0 °F 32% 30.13 in 10.0 mi WSW 6.9 mph - N/A   Overcast
5:53 PM 48.0 °F - 19.0 °F 32% 30.12 in 10.0 mi SW 11.5 mph - N/A   Mostly Cloudy
6:53 PM 46.9 °F - 19.9 °F 34% 30.11 in 10.0 mi SW 8.1 mph - N/A   Mostly Cloudy
7:53 PM 43.0 °F 40.3 °F 19.9 °F 40% 30.12 in 10.0 mi South 4.6 mph - N/A   Mostly Cloudy
8:53 PM 39.9 °F 36.7 °F 21.0 °F 47% 30.12 in 10.0 mi SSW 4.6 mph - N/A   Mostly Cloudy
9:53 PM 41.0 °F 35.2 °F 19.9 °F 43% 30.09 in 10.0 mi SW 9.2 mph - N/A   Partly Cloudy
10:53 PM 39.9 °F 32.9 °F 19.0 °F 43% 30.08 in 10.0 mi SW 11.5 mph - N/A   Partly Cloudy
11:53 PM 41.0 °F 32.8 °F 19.0 °F 41% 30.06 in 10.0 mi WSW 16.1 mph - N/A   Partly Cloudy